Вернуться в каталог

COSMOS 2499 DEB

АктивенPO
NORAD 49940·DEBRIS·🇷🇺 Russia

Запущен May 23, 2014 с Plesetsk Cosmodrome

Loading…

Ближайшие Пролёты (ближайшие 24 часа)

TLE

УстаревающийSource: Space-Track

Эпоха: Sep 9, 2026, 00:54 UTC

1 49940U 14028X   26252.03803708  .00003432  00000-0  78940-2 0  9999
2 49940  82.4664 164.9583 0339968  24.9757 336.7383 13.06013812229951

Отслеживайте COSMOS 2499 DEB в реальном времени с AllMySat

Download on the App Store